Location: Leipzig
(51.3392°N, 12.3528°E)
Time: 13:45:01
(UTC+01:00)

Tiangong 2 - Visible Passes

Search period start: 24 November 2017 00:00
Search period end: 04 December 2017 00:00
Orbit: 386 x 392 km, 42.8° (Epoch: 24 November)

Date Brightness Start Highest point End Pass type
(mag) Time Alt. Az. Time Alt. Az. Time Alt. Az.
27 Nov 4.3 06:51:55 10° S 06:52:45 11° SSE 06:53:37 10° SE visible
29 Nov 3.9 06:31:01 10° SSW 06:32:47 14° SSE 06:34:34 10° SE visible
30 Nov 4.0 05:33:47 10° S 05:34:47 11° SSE 05:35:48 10° SE visible
30 Nov 3.7 07:08:36 10° SW 07:10:52 18° S 07:13:07 10° SE visible
01 Dec 3.6 06:10:40 10° SSW 06:12:48 17° S 06:14:56 10° SE visible
02 Dec 3.8 05:15:01 14° SSE 05:15:01 14° SSE 05:16:34 10° SE visible
02 Dec 3.5 06:48:38 10° SW 06:50:52 18° S 06:53:07 10° SE visible
03 Dec 3.3 05:51:50 16° SSW 05:52:47 18° S 05:55:02 10° SE visible
